Sydney, Australia

9:50 AM AEDT on October 20, 2017 (GMT +1100)
Kingsford Smith International

Weather History for YSSY - September, 2013

Change the Weather History Date:

Tuesday, September 10, 2013

  Actual Average Record
Temperature  
Mean Temperature 78 °F -  
Max Temperature 91 °F 70 °F 91 °F (2013)
Min Temperature 64 °F 52 °F 44 °F (2008)
Cooling Degree Days 12    
Growing Degree Days 28 (Base 50)    
Moisture  
Dew Point 40 °F    
Average Humidity 27    
Maximum Humidity 55    
Minimum Humidity 4    
Precipitation  
Precipitation 0.00 in 0.09 in - ()
Sea Level Pressure  
Sea Level Pressure 29.65 in    
Wind  
Wind Speed 19 mph ()    
Max Wind Speed 36 mph    
Max Gust Speed 45 mph    
Visibility 12.6 miles    
Events      
Averages and records for this station are not official NWS values.
T = Trace of Precipitation, MM = Missing Value Source: Averaged Metar Reports

Daily Weather History Graph

Daily Weather History Graph

Search for Another Location

Airport or City:

Trip Planner

Search our weather history database for the weather conditions in past years. The results will help you decide how hot, cold, wet, or windy it might be!

Date:

Astronomy

Sep. 10, 2013 Rise Set
Actual Time 6:01 AM AEST 5:43 PM AEST
Civil Twilight 5:37 AM AEST 6:08 PM AEST
Nautical Twilight 5:08 AM AEST 6:37 PM AEST
Astronomical Twilight 4:39 AM AEST 7:06 PM AEST
Moon 8:35 AM AEST (9/10) 10:32 PM AEST (9/10)
Length of Visible Light 12h 31m
Length of Day
11h 41m
Waxing Crescent, 22% of the Moon is Illuminated
Sep 10
Waxing Crescent
Sep 13
First Quarter
Sep 19
Full
Sep 27
Last Quarter
Oct 5
New

Hourly Weather History & Observations

Time (AEST) Temp. Heat Index Dew Point Humidity Pressure Visibility Wind Dir Wind Speed Gust Speed Precip Events Conditions
12:00 AM 72 °F - 50 °F 35% 29.78 in 12 mi North 11.5 mph - -   Haze
12:00 AM 71.6 °F - 50.0 °F 46% 29.77 in - North 11.5 mph - N/A   Clear
1:00 AM 72 °F - 48 °F 31% 29.76 in - North 13.8 mph - -  
1:00 AM 71.6 °F - 48.2 °F 43% 29.74 in - North 13.8 mph - N/A   Clear
2:00 AM 72 °F - 46 °F 28% 29.73 in - North 16.1 mph - -  
2:00 AM 71.6 °F - 46.4 °F 41% 29.71 in - North 16.1 mph - N/A   Clear
2:30 AM 71.6 °F - 44.6 °F 38% 29.71 in - North 15.0 mph - N/A   Clear
3:00 AM 72 °F - 44 °F 26% 29.71 in 16 mi NNW 16.1 mph - -   Partly Cloudy
3:00 AM 71.6 °F - 44.6 °F 38% 29.68 in - NNW 16.1 mph - N/A   Clear
3:30 AM 71.6 °F - 42.8 °F 35% 29.68 in - North 17.3 mph - N/A   Clear
4:00 AM 72 °F - 43 °F 24% 29.69 in - NNW 18.4 mph - -  
4:00 AM 71.6 °F - 42.8 °F 35% 29.68 in - NNW 18.4 mph - N/A   Clear
4:30 AM 71.6 °F - 42.8 °F 35% 29.68 in - North 20.7 mph - N/A   Clear
5:00 AM 71 °F - 43 °F 25% 29.68 in - North 18.4 mph - -  
5:00 AM 71.6 °F - 42.8 °F 35% 29.68 in - North 18.4 mph - N/A   Clear
5:30 AM 73.4 °F - 41.0 °F 31% 29.68 in - NNW 18.4 mph - N/A   Clear
6:00 AM 75 °F - 39 °F 17% 29.68 in 16 mi NNW 23.0 mph - -   Haze
6:00 AM 75.2 °F - 39.2 °F 27% 29.65 in - NNW 23.0 mph - N/A   Clear
6:30 AM 75.2 °F - 39.2 °F 27% 29.65 in - NNW 23.0 mph - N/A   Clear
7:00 AM 76 °F - 40 °F 17% 29.68 in - NNW 24.2 mph - -  
7:00 AM 77.0 °F - 39.2 °F 26% 29.65 in - NNW 24.2 mph - N/A   Clear
7:24 AM 77.0 °F - 41.0 °F 28% 29.68 in - NNW 26.5 mph 38.0 mph N/A   Clear
7:30 AM 77.0 °F - 41.0 °F 28% 29.68 in - NNW 25.3 mph 38.0 mph N/A   Clear
8:00 AM 77 °F - 42 °F 18% 29.68 in - NNW 28.8 mph - -  
8:00 AM 77.0 °F - 41.0 °F 28% 29.68 in - NNW 28.8 mph - N/A   Clear
8:30 AM 77.0 °F - 42.8 °F 29% 29.68 in - NNW 24.2 mph - N/A   Clear
9:00 AM 80 °F - 44 °F 17% 29.68 in 11 mi NNW 26.5 mph - -   Haze
9:00 AM 80.6 °F - 42.8 °F 26% 29.65 in - NNW 26.5 mph 39.1 mph N/A   Clear
9:30 AM 82.4 °F - 46.4 °F 28% 29.65 in - NNW 21.9 mph 33.4 mph N/A   Clear
10:00 AM 84 °F - 54 °F 25% 29.65 in - NNW 28.8 mph - -  
10:00 AM 84.2 °F 82.8 °F 53.6 °F 35% 29.65 in - NNW 28.8 mph 40.3 mph N/A   Clear
10:30 AM 84.2 °F 83.8 °F 59.0 °F 42% 29.62 in - NNW 31.1 mph 42.6 mph N/A   Clear
11:00 AM 85 °F - 63 °F 38% 29.62 in - NNW 32.2 mph - -  
11:00 AM 84.2 °F 85.0 °F 62.6 °F 48% 29.62 in - NNW 32.2 mph 43.7 mph N/A   Clear
11:35 AM 84.2 °F 85.6 °F 64.4 °F 51% 29.59 in - NNW 26.5 mph 38.0 mph N/A   Clear
12:00 PM 86 °F - 68 °F 46% 29.60 in 16 mi NNW 27.6 mph - -   Smoke
12:00 PM 86.0 °F 89.4 °F 68.0 °F 55% 29.59 in - NNW 27.6 mph 39.1 mph N/A   Clear
12:30 PM 87.8 °F - 26.6 °F 11% 29.56 in - NNW 23.0 mph 34.5 mph N/A   Clear
1:00 PM 89.6 °F - 30.2 °F 12% 29.53 in - NNW 19.6 mph 31.1 mph N/A   Clear
1:18 PM 89.6 °F - 24.8 °F 10% 29.53 in - WNW 31.1 mph - N/A   Clear
1:30 PM 91.4 °F - 23.0 °F 8% 29.53 in - NW 32.2 mph - N/A   Clear
1:36 PM 91.4 °F - 21.2 °F 8% 29.53 in - WNW 31.1 mph 42.6 mph N/A   Clear
2:00 PM 90 °F - 19 °F 4% 29.54 in - WNW 26.5 mph - -  
2:00 PM 89.6 °F - 19.4 °F 8% 29.53 in - WNW 26.5 mph 42.6 mph N/A   Clear
2:30 PM 89.6 °F - 21.2 °F 8% 29.53 in - WNW 31.1 mph 42.6 mph N/A   Clear
3:00 PM 89 °F - 23 °F 4% 29.54 in 9 mi WNW 35.7 mph - -   Smoke
3:00 PM 89.6 °F - 23.0 °F 9% 29.53 in - WNW 35.7 mph - N/A   Clear
3:30 PM 87.8 °F - 24.8 °F 10% 29.53 in 5.0 mi WNW 28.8 mph 41.4 mph N/A   Unknown
4:00 PM 88 °F - 27 °F 5% 29.54 in - WNW 25.3 mph - -  
4:04 PM 87.8 °F - 24.8 °F 10% 29.53 in - WNW 26.5 mph 39.1 mph N/A   Clear
4:30 PM 86.0 °F - 30.2 °F 13% 29.53 in - West 24.2 mph 35.7 mph N/A   Clear
5:00 PM 84 °F - 31 °F 7% 29.57 in - West 31.1 mph - -  
5:00 PM 84.2 °F - 30.2 °F 14% 29.56 in - West 31.1 mph 44.9 mph N/A   Clear
5:30 PM 82.4 °F - 32.0 °F 16% 29.56 in - WNW 29.9 mph 41.4 mph N/A   Clear
6:00 PM 80 °F - 35 °F 11% 29.61 in 12 mi WNW 28.8 mph - -   Smoke
6:00 PM 80.6 °F - 35.6 °F 20% 29.59 in - WNW 28.8 mph - N/A   Clear
6:07 PM 78.8 °F - 37.4 °F 23% 29.59 in - West 29.9 mph 43.7 mph N/A   Clear
6:30 PM 78.8 °F - 35.6 °F 21% 29.62 in - West 32.2 mph - N/A   Clear
6:39 PM 77.0 °F - 37.4 °F 24% 29.62 in - WNW 31.1 mph 42.6 mph N/A   Clear
7:00 PM 76 °F - 38 °F 15% 29.66 in - West 21.9 mph - -  
7:00 PM 77.0 °F - 37.4 °F 24% 29.65 in - West 21.9 mph - N/A   Clear
7:30 PM 75.2 °F - 35.6 °F 24% 29.68 in - WSW 16.1 mph - N/A   Clear
8:00 PM 72 °F - 39 °F 19% 29.70 in - WSW 12.7 mph - -  
8:00 PM 71.6 °F - 39.2 °F 31% 29.68 in - WSW 12.7 mph - N/A   Clear
8:30 PM 71.6 °F - 39.2 °F 31% 29.71 in - WSW 10.4 mph - N/A   Clear
9:00 PM 71 °F - 39 °F 21% 29.72 in 16 mi West 11.5 mph - -   Smoke
9:00 PM 71.6 °F - 39.2 °F 31% 29.71 in - West 11.5 mph - N/A   Clear
9:30 PM 68.0 °F - 41.0 °F 37% 29.71 in - WSW 9.2 mph - N/A   Clear
10:00 PM 67 °F - 47 °F 37% 29.74 in - South 5.8 mph - -  
10:00 PM 68.0 °F - 46.4 °F 46% 29.74 in - South 5.8 mph - N/A   Clear
10:30 PM 64.4 °F - 46.4 °F 52% 29.74 in - South 9.2 mph - N/A   Clear
11:00 PM 65 °F - 46 °F 39% 29.76 in - SSW 13.8 mph - -  
11:00 PM 64.4 °F - 46.4 °F 52% 29.74 in - SSW 13.8 mph - N/A   Clear
11:30 PM 64.4 °F - 44.6 °F 49% 29.74 in - SSW 16.1 mph - N/A   Clear